Regional Weather Roundup
Issued by NWS

Home | Current Version | Previous Version | Graphics & Text | Print | Product List | Glossary Off
Versions: 1 2 3 4 5 6 7 8 9 10 11 12 13 14 15 16 17 18 19 20 21 22 23 24 25 26 27 28 29 30 31 32 33 34 35 36 37 38 39 40 41 42 43 44 45 46 47 48 49 50

000
ASUS43 KLSX 181607
RWRMO

WEATHER SUMMARY FOR MISSOURI
NATIONAL WEATHER SERVICE SPRINGFIELD MO
1100 AM CDT FRI APR 18 2014

NOTE: "FAIR" INDICATES FEW OR NO CLOUDS BELOW 12,000 FEET WITH NO
       SIGNIFICANT WEATHER AND/OR OBSTRUCTIONS TO VISIBILITY.
       CURRENT SKY AND/OR WEATHER CONDITIONS ARE NOT AVAILABLE FOR
       CHILLICOTHE AND FARMINGTON.

MOZ001>031-035>038-043-044-053-054-181700-
...NORTHERN AND WESTERN MISSOURI...

CITY           SKY/WX    TMP DP  RH WIND       PRES   REMARKS
KANSAS CTY INT SUNNY     54  36  50 MISG      30.31F
KANSAS C DTWN  SUNNY     55  38  52 NE5       30.32S
LEE`S SUMMIT   SUNNY     54  39  57 SE3       30.33R
ST JOSEPH      SUNNY     53  35  50 SE10      30.32F
CHILLICOTHE      N/A     53  37  54 VRB3      30.35R
KIRKSVILLE     SUNNY     54  36  50 NE7       30.35S

$$
MOZ066>068-077>081-088>096-101>105-181700-
...SOUTHWEST MISSOURI...

CITY           SKY/WX    TMP DP  RH WIND       PRES   REMARKS
SPRINGFIELD    SUNNY     65  42  43 VRB5      30.28S
JOPLIN         SUNNY     61  44  53 E3        30.30S

$$
MOZ032>034-039>042-045>050-055>058-069>072-181700-
...CENTRAL MISSOURI...

CITY           SKY/WX    TMP DP  RH WIND       PRES   REMARKS
COLUMBIA       SUNNY     57  41  55 CALM      30.33S
JEFFERSON CITY SUNNY     56  40  55 SE7       30.33S
ROLLA          SUNNY     59  41  51 VRB5      30.31R
SEDALIA        SUNNY     56  43  61 E8        30.34S
WHITEMAN AFB   SUNNY     54  40  60 NE6       30.33S
OSAGE BEACH    SUNNY     59  39  47 NE6       30.33S

$$
MOZ051-052-059>065-181700-
...EAST CENTRAL MISSOURI...

CITY           SKY/WX    TMP DP  RH WIND       PRES   REMARKS
ST LOUIS INTL  MOSUNNY   60  39  45 NE3       30.33S
SPIRIT OF STL  SUNNY     59  41  51 CALM      30.33S
ST CHARLES     SUNNY     58  41  53 NE6       30.33R

$$
MOZ072>076-082>087-097>100-106>115-181700-
...SOUTH CENTRAL AND SOUTHEAST MISSOURI...

CITY           SKY/WX    TMP DP  RH WIND       PRES   REMARKS
CAPE GIRARDEAU SUNNY     67  45  45 N5        30.29S
FARMINGTON     SUNNY     61  45  55 NW3       30.32F
POPLAR BLUFF   SUNNY     68  43  40 E7        30.27S
WEST PLAINS    SUNNY     64  41  42 SW3       30.29S

$$



USA.gov is the U.S. government's official web portal to all federal, state and local government web resources and services.